West West Florida High School FL US WEATHERSTEM current weather conditions

sailwx.info

Wind from 152 at 6 knots gusting 8

Air temperature 18.3° C
Dewpoint 5.1° C

Last reported at 2019-Dec-05 19:00 UTC.
Time now 2019-Dec-05 19:26 UTC

Location: N 30°30' W 087°15'.
View on Google Maps.

See reports from other nearby stations

  
Tides and Currents Weather Stations Pressure Air Temp Water Temp Dewpoint Dewpoint Depression Visibility Wind Speed Wind Dir Waves Ship Positions
date/time (UTC)wind fromknots sea level pressurealtimeterstation pressurevisibilityair tempwater tempwave heightnotes
2019-Dec-05 19:00 152 6 gusting 8 18.3
2019-Dec-05 18:50 131 3 gusting 7 18.1
2019-Dec-05 18:40 135 1 gusting 6 18.0
2019-Dec-05 18:30 134 6 gusting 7 17.8
2019-Dec-05 18:20 133 3 gusting 6 17.8
2019-Dec-05 18:10 138 3 gusting 6 17.8
2019-Dec-05 18:00 17.6
2019-Dec-05 17:50 138 2 gusting 7 17.3
2019-Dec-05 17:40 131 4 gusting 7 17.1
2019-Dec-05 17:30 043 0 gusting 5 17.0
2019-Dec-05 17:20 043 3 gusting 6 16.8
2019-Dec-05 17:10 038 1 gusting 3 16.7
2019-Dec-05 17:00 038 2 gusting 4 16.6
2019-Dec-05 16:50 16.6
2019-Dec-05 16:40 16.2
2019-Dec-05 16:30 038 1 gusting 2 15.8
2019-Dec-05 16:20 038 0 gusting 3 15.4
2019-Dec-05 16:10 038 1 gusting 3 15.2
2019-Dec-05 16:00 038 1 gusting 2 15.2
2019-Dec-05 15:50 038 1 gusting 2 14.7
2019-Dec-05 15:40 14.2
2019-Dec-05 15:30 038 0 gusting 3 13.9
2019-Dec-05 15:20 038 1 gusting 4 13.8
2019-Dec-05 15:10 038 2 gusting 4 13.6
2019-Dec-05 15:00 034 0 gusting 5 12.8
2019-Dec-05 14:50 043 1 gusting 5 12.3
2019-Dec-05 14:40 038 4 gusting 5 12.1
2019-Dec-05 14:30 294 0 gusting 4 11.9
2019-Dec-05 14:20 294 1 gusting 4 11.3
2019-Dec-05 14:10 294 10.7
2019-Dec-05 14:00 265 9.9
2019-Dec-05 13:50 265 9.2
2019-Dec-05 13:40 265 1 gusting 5 8.3
2019-Dec-05 13:30 265 2 gusting 3 7.8
2019-Dec-05 13:20 265 1 gusting 3 7.6
2019-Dec-05 13:00 265 1 gusting 5 7.2
2019-Dec-05 12:50 265 2 gusting 5 6.9
2019-Dec-05 12:40 265 2 gusting 3 6.8
2019-Dec-05 12:30 265 1 gusting 2 6.7
2019-Dec-05 12:20 265 1 gusting 3 6.7
2019-Dec-05 12:10 265 1 gusting 2 6.6
2019-Dec-05 12:00 265 0 gusting 2 6.5
2019-Dec-05 11:50 265 1 gusting 2 6.6
2019-Dec-05 11:40 265 1 gusting 2 6.7
2019-Dec-05 11:30 265 2 gusting 2 6.7
2019-Dec-05 11:20 6.9
2019-Dec-05 11:10 7.1
2019-Dec-05 11:00 265 7.2
2019-Dec-05 10:50 7.3
2019-Dec-05 10:40 7.4
2019-Dec-05 10:30 265 0 gusting 1 7.6
2019-Dec-05 10:20 265 0 gusting 0 7.7
2019-Dec-05 10:10 265 0 gusting 2 7.8
2019-Dec-05 10:00 265 1 gusting 2 7.9
2019-Dec-05 09:50 265 0 gusting 3 8.0
2019-Dec-05 09:40 265 1 gusting 3 8.0
2019-Dec-05 09:30 265 1 gusting 2 8.1
2019-Dec-05 09:20 265 1 gusting 2 8.3
2019-Dec-05 09:10 265 1 gusting 1 8.4
2019-Dec-05 09:00 265 0 gusting 1 8.7
2019-Dec-05 08:50 9.0
2019-Dec-05 08:40 265 0 gusting 3 9.1
2019-Dec-05 08:30 265 1 gusting 2 9.3
2019-Dec-05 08:20 265 0 gusting 2 9.4
2019-Dec-05 08:10 265 2 gusting 2 9.6
2019-Dec-05 08:00 265 1 gusting 3 9.7
2019-Dec-05 07:50 265 1 gusting 3 9.8
2019-Dec-05 07:30 265 0 gusting 2 9.9
2019-Dec-05 07:20 265 1 gusting 5 9.9
2019-Dec-05 07:10 265 2 gusting 5 9.8
2019-Dec-05 07:00 265 1 gusting 3 9.6
2019-Dec-05 06:50 265 1 gusting 3 9.6
2019-Dec-05 06:40 265 1 gusting 2 9.6
2019-Dec-05 06:30 265 0 gusting 3 9.5
2019-Dec-05 06:20 265 2 gusting 5 9.3
2019-Dec-05 06:10 265 1 gusting 3 9.2
2019-Dec-05 06:00 9.3
2019-Dec-05 05:50 265 1 gusting 3 9.2
2019-Dec-05 05:40 265 1 gusting 2 8.9
2019-Dec-05 05:30 265 0 gusting 1 8.8
2019-Dec-05 05:20 9.0
2019-Dec-05 05:10 9.2
2019-Dec-05 05:00 265 0 gusting 1 9.3
2019-Dec-05 04:50 265 0 gusting 1 9.4
2019-Dec-05 04:40 265 0 gusting 2 9.6
2019-Dec-05 04:30 265 1 gusting 2 9.6
2019-Dec-05 04:20 265 1 gusting 2 9.7
2019-Dec-05 04:10 265 0 gusting 1 9.9
2019-Dec-05 04:00 10.0
2019-Dec-05 03:50 10.3
2019-Dec-05 03:40 265 0 gusting 1 10.4
2019-Dec-05 03:30 265 0 gusting 1 10.6
2019-Dec-05 03:20 265 0 gusting 2 10.7
2019-Dec-05 03:10 265 1 gusting 2 10.7
2019-Dec-05 03:00 265 0 gusting 1 10.9
2019-Dec-05 02:50 265 0 gusting 1 11.1
2019-Dec-05 02:40 265 0 gusting 1 11.2
2019-Dec-05 02:30 265 0 gusting 2 11.3
2019-Dec-05 02:20 265 0 gusting 3 11.4
2019-Dec-05 02:10 265 1 gusting 3 11.6
2019-Dec-05 02:00 265 2 gusting 6 11.9
2019-Dec-05 01:50 273 5 gusting 6 12.4
2019-Dec-05 01:40 298 0 gusting 2 12.8
2019-Dec-05 01:30 298 0 gusting 2 12.9
2019-Dec-05 01:20 298 1 gusting 2 13.0
2019-Dec-05 01:10 298 1 gusting 3 13.1
2019-Dec-05 01:00 298 1 gusting 2 13.3
2019-Dec-05 00:50 298 1 gusting 2 13.5
2019-Dec-05 00:40 298 2 gusting 3 13.7
2019-Dec-05 00:30 298 1 gusting 3 13.8
2019-Dec-05 00:20 298 1 gusting 4 14.0
2019-Dec-05 00:10 298 2 gusting 2 14.2
2019-Dec-05 00:00 298 1 gusting 3 14.6
2019-Dec-04 23:50 298 2 gusting 3 14.8
2019-Dec-04 23:40 298 2 gusting 3 14.9
2019-Dec-04 23:30 298 2 gusting 3 15.2
2019-Dec-04 23:20 298 1 gusting 3 15.6
2019-Dec-04 23:10 298 2 gusting 3 16.1
2019-Dec-04 23:00 298 2 gusting 2 16.6
2019-Dec-04 22:50 298 1 gusting 2 17.1
2019-Dec-04 22:40 298 1 gusting 3 17.6
2019-Dec-04 22:30 298 2 gusting 3 17.8
2019-Dec-04 22:20 298 2 gusting 6 18.1
2019-Dec-04 22:10 296 2 gusting 6 18.3
2019-Dec-04 22:00 289 7 gusting 8 18.4
2019-Dec-04 21:50 295 3 gusting 7 18.6
2019-Dec-04 21:40 304 3 gusting 9 18.8
2019-Dec-04 21:30 284 0 gusting 6 18.8
2019-Dec-04 21:20 286 6 gusting 10 18.8
2019-Dec-04 21:10 286 5 gusting 7 18.7
2019-Dec-04 21:00 284 3 gusting 11 18.7
2019-Dec-04 20:50 277 8 gusting 11 18.7
2019-Dec-04 20:40 311 6 gusting 12 18.7
2019-Dec-04 20:30 291 10 gusting 10 18.7
2019-Dec-04 20:20 306 3 gusting 11 18.7
2019-Dec-04 20:10 301 6 gusting 10 18.6
2019-Dec-04 20:00 269 6 gusting 14 18.6
2019-Dec-04 19:50 251 11 gusting 13 18.6
2019-Dec-04 19:40 263 5 gusting 10 18.6
2019-Dec-04 19:30 303 8 gusting 13 18.2
2019-Dec-04 19:20 295 2 gusting 11 18.1
2019-Dec-04 19:10 288 6 gusting 10 18.1
2019-Dec-04 19:00 304 7 gusting 11 17.9
2019-Dec-04 18:50 269 5 gusting 13 17.9
2019-Dec-04 18:40 285 3 gusting 9 17.9
2019-Dec-04 18:30 308 10 gusting 12 17.6
2019-Dec-04 18:20 289 2 gusting 12 17.5
2019-Dec-04 18:10 304 6 gusting 12 17.2
2019-Dec-04 18:00 344 6 gusting 10 16.9
2019-Dec-04 17:50 279 7 gusting 11 16.7
2019-Dec-04 17:40 338 4 gusting 9 16.6
2019-Dec-04 17:30 284 1 gusting 7 16.3
2019-Dec-04 17:20 317 4 gusting 7 15.9
2019-Dec-04 17:10 355 3 gusting 8 15.5
2019-Dec-04 17:00 317 7 gusting 8 15.3
2019-Dec-04 16:50 298 2 gusting 6 15.1
2019-Dec-04 16:40 287 6 gusting 7 14.7
2019-Dec-04 16:30 299 6 gusting 8 14.4
2019-Dec-04 16:20 296 3 gusting 7 14.1
2019-Dec-04 16:10 324 7 gusting 8 13.9
2019-Dec-04 16:00 325 0 gusting 12 13.3
2019-Dec-04 15:50 324 5 gusting 13 12.9
2019-Dec-04 15:40 331 6 gusting 13 12.6
2019-Dec-04 15:30 277 6 gusting 9 12.6
2019-Dec-04 15:20 334 5 gusting 12 12.2
2019-Dec-04 15:10 270 2 gusting 13 11.6
2019-Dec-04 15:00 319 4 gusting 14 11.3
2019-Dec-04 14:50 265 6 gusting 13 10.7
2019-Dec-04 14:40 305 6 gusting 10 10.3
2019-Dec-04 14:30 284 6 gusting 11 9.7
2019-Dec-04 14:20 289 2 gusting 10 9.3
2019-Dec-04 14:10 272 6 gusting 12 8.9
2019-Dec-04 14:00 282 6 gusting 9 8.4
2019-Dec-04 13:50 277 5 gusting 7 7.9
2019-Dec-04 13:40 265 5 gusting 7 7.6
2019-Dec-04 13:30 266 6 gusting 6 7.3
2019-Dec-04 13:20 267 5 gusting 6 7.0
2019-Dec-04 13:10 273 5 gusting 6 6.8
2019-Dec-04 13:00 275 6 gusting 6 6.6
2019-Dec-04 12:50 274 2 gusting 7 6.4
2019-Dec-04 12:40 270 3 gusting 6 6.2
2019-Dec-04 12:30 269 5 gusting 6 5.9
2019-Dec-04 12:20 273 2 gusting 6 5.8
2019-Dec-04 12:10 271 3 gusting 6 5.6
2019-Dec-04 12:00 271 1 gusting 6 5.5
2019-Dec-04 11:50 270 1 gusting 6 5.4
2019-Dec-04 11:40 271 1 gusting 5 5.5
2019-Dec-04 11:30 271 2 gusting 6 5.6
2019-Dec-04 11:20 271 2 gusting 6 5.7
2019-Dec-04 11:10 271 5 gusting 6 5.7
2019-Dec-04 11:00 275 2 gusting 7 5.7
2019-Dec-04 10:50 275 3 gusting 6 5.7
2019-Dec-04 10:40 275 3 gusting 6 5.7
2019-Dec-04 10:30 272 5 gusting 6 5.7
2019-Dec-04 10:20 273 2 gusting 6 5.7
2019-Dec-04 10:10 267 2 gusting 6 5.4
2019-Dec-04 10:00 267 2 gusting 5 5.2
2019-Dec-04 09:50 267 1 gusting 6 5.0
2019-Dec-04 09:40 267 2 gusting 5 4.8
2019-Dec-04 09:30 267 0 gusting 5 4.7
2019-Dec-04 09:20 267 2 gusting 3 4.7
2019-Dec-04 09:10 267 1 gusting 3 4.7
2019-Dec-04 09:00 267 1 gusting 2 4.7
2019-Dec-04 08:50 267 1 gusting 3 4.8
2019-Dec-04 08:40 4.9
2019-Dec-04 08:30 5.1
2019-Dec-04 08:20 5.2
2019-Dec-04 08:10 267 0 gusting 3 5.2
2019-Dec-04 08:00 267 0 gusting 2 5.3
2019-Dec-04 07:50 267 1 gusting 3 5.3
2019-Dec-04 07:40 267 2 gusting 3 5.3
2019-Dec-04 07:30 267 1 gusting 3 5.3
2019-Dec-04 07:20 267 1 gusting 3 5.4
2019-Dec-04 07:10 267 1 gusting 2 5.4
2019-Dec-04 07:00 267 1 gusting 2 5.4
2019-Dec-04 06:50 267 2 gusting 3 5.6
2019-Dec-04 06:40 267 2 gusting 3 5.8
2019-Dec-04 06:30 267 1 gusting 2 6.1
2019-Dec-04 06:20 267 1 gusting 5 6.1
2019-Dec-04 06:10 267 2 gusting 5 6.2
2019-Dec-04 06:00 269 3 gusting 6 6.1
2019-Dec-04 05:50 271 3 gusting 6 6.1
2019-Dec-04 05:40 271 2 gusting 3 6.0
2019-Dec-04 05:30 271 1 gusting 3 5.9
2019-Dec-04 05:20 271 2 gusting 3 6.1
2019-Dec-04 05:10 271 2 gusting 3 6.2
2019-Dec-04 05:00 271 2 gusting 5 6.2
2019-Dec-04 04:50 271 3 gusting 5 6.3
2019-Dec-04 04:40 271 1 gusting 6 6.4
2019-Dec-04 04:30 270 3 gusting 6 6.6
2019-Dec-04 04:20 265 3 gusting 6 6.6
2019-Dec-04 04:10 265 2 gusting 6 6.7
2019-Dec-04 04:00 269 3 gusting 6 6.7
2019-Dec-04 03:50 269 2 gusting 6 6.8
2019-Dec-04 03:40 267 6 gusting 10 6.6
2019-Dec-04 03:30 275 3 gusting 8 6.4
2019-Dec-04 03:20 272 6 gusting 6 6.4
2019-Dec-04 03:10 271 6 gusting 7 6.4
2019-Dec-04 03:00 266 2 gusting 6 6.2
2019-Dec-04 02:50 265 0 gusting 2 6.2
2019-Dec-04 02:40 265 0 gusting 3 6.2
2019-Dec-04 02:30 265 2 gusting 3 6.3
2019-Dec-04 02:20 265 1 gusting 5 6.4
2019-Dec-04 02:10 265 1 gusting 6 6.6
2019-Dec-04 02:00 266 3 gusting 5 6.7
2019-Dec-04 01:50 266 2 gusting 5 6.7
2019-Dec-04 01:40 266 1 gusting 3 6.8
2019-Dec-04 01:30 266 2 gusting 6 6.8
2019-Dec-04 01:20 266 3 gusting 6 6.9
2019-Dec-04 01:10 261 1 gusting 6 7.1
2019-Dec-04 01:00 259 5 gusting 6 7.2
2019-Dec-04 00:50 257 4 gusting 7 7.4
2019-Dec-04 00:40 257 4 gusting 8 7.8
2019-Dec-04 00:30 265 5 gusting 6 8.3
2019-Dec-04 00:20 265 2 gusting 5 8.6
2019-Dec-04 00:10 265 1 gusting 3 8.8
2019-Dec-04 00:00 265 2 gusting 3 8.9
2019-Dec-03 23:50 265 1 gusting 3 9.2
2019-Dec-03 23:40 265 2 gusting 3 9.6
2019-Dec-03 23:30 265 2 gusting 3 9.8
2019-Dec-03 23:20 265 1 gusting 2 10.1
2019-Dec-03 23:10 265 2 gusting 3 10.4
2019-Dec-03 23:00 265 2 gusting 3 10.8
2019-Dec-03 22:50 265 2 gusting 3 11.2
2019-Dec-03 22:40 265 1 gusting 5 11.5
2019-Dec-03 22:30 265 0 gusting 5 11.7
2019-Dec-03 22:20 263 1 gusting 6 11.8
2019-Dec-03 22:10 268 5 gusting 6 12.0
2019-Dec-03 22:00 287 4 gusting 9 12.1
2019-Dec-03 21:50 281 5 gusting 6 12.2
2019-Dec-03 21:40 264 2 gusting 6 12.2
2019-Dec-03 21:30 270 6 gusting 7 12.0
2019-Dec-03 21:20 285 6 gusting 8 12.1
2019-Dec-03 21:10 286 6 gusting 10 12.1
2019-Dec-03 21:00 255 6 gusting 9 12.1
2019-Dec-03 20:50 287 8 gusting 11 12.0
2019-Dec-03 20:40 269 5 gusting 10 12.1
2019-Dec-03 20:30 290 9 gusting 11 12.3
2019-Dec-03 20:20 277 8 gusting 11 12.1
2019-Dec-03 20:10 275 6 gusting 10 11.7
2019-Dec-03 20:00 302 6 gusting 10 11.4
2019-Dec-03 19:50 280 7 gusting 12 11.2
2019-Dec-03 19:40 286 6 gusting 9 11.1
2019-Dec-03 19:30 295 2 gusting 12 10.9
2019-Dec-03 19:20 319 8 gusting 10 10.8
2019-Dec-03 19:10 279 6 gusting 9 10.7
2019-Dec-03 19:00 283 5 gusting 10 10.2